{"data":{"norad_id":45367,"epoch":"2026-05-24T11:56:39.532992Z","epoch_age_seconds":121472,"freshness":"FRESH","line1":"1 45367U 20019H   26144.49767978  .00057550  00000+0  84426-3 0  9999","line2":"2 45367  53.0442 151.1058 0006459   8.4981 351.6138 15.54974950341655","mean_motion":15.5497495,"eccentricity":0.0006459,"inclination_deg":53.0442,"raan_deg":151.1058,"arg_perigee_deg":8.4981,"mean_anomaly_deg":351.6138,"bstar":0.00084426,"rev_number":34165,"period_min":92.60599342774,"perigee_km":397.8460115011,"apogee_km":406.60488371092,"semimajor_km":6780.362447606,"source":"CELESTRAK","updated_at":"2026-05-25T13:38:16.387174Z"}}